Vorticity
nan nan nan nan nan nan nan nan nan nan nan nan nan nan nan nan nan nan nan nan nan nan nan nan nan nan nan nan nan nan nan nan nan
nan 7 4 6 6 6 6 5 4 3 4 6 6 4 3 3 6 7 7 11 7 5 5 6 6 5 6 7 6 4 3 4 nan
nan 5 5 5 6 6 7 5 4 5 7 6 5 4 4 6 6 7 11 12 6 6 6 6 6 6 5 5 5 5 5 7 nan
nan 4 4 5 5 6 6 5 6 8 6 6 5 5 6 5 7 7 10 9 6 4 5 7 6 5 4 5 5 5 6 7 nan
nan 5 6 6 6 7 5 6 7 9 6 5 4 5 3 5 6 7 12 10 6 4 5 4 6 9 4 4 6 5 5 5 nan
nan 4 7 8 8 7 4 6 8 7 5 3 3 1 3 6 6 10 13 9 6 6 6 5 8 6 6 3 4 6 4 5 nan
nan 10 9 6 6 7 6 5 2 3 5 5 4 4 7 6 7 10 11 8 5 5 6 5 8 4 5 8 4 4 6 7 nan
nan 7 7 7 6 7 7 4 5 6 7 7 6 8 7 7 7 9 9 9 6 4 6 8 5 5 3 5 7 6 5 6 nan
nan 7 8 7 7 8 6 6 7 7 8 8 7 7 6 8 8 10 9 9 7 7 7 7 5 4 6 4 5 4 5 5 nan
nan 7 7 8 7 8 7 7 7 7 7 7 7 7 6 7 7 9 11 9 9 8 7 5 5 5 5 5 6 4 6 6 nan
nan 7 7 7 8 8 9 9 7 7 8 7 6 6 7 7 7 7 10 9 10 8 6 5 4 6 5 6 4 5 6 6 nan
nan 7 7 7 8 7 6 7 8 9 8 7 7 7 8 7 7 8 7 9 9 9 5 5 6 5 4 5 4 5 6 6 nan
nan 7 7 8 8 7 7 6 8 8 7 7 7 7 8 8 8 6 6 8 9 9 9 12 6 6 6 4 4 5 6 6 nan
nan 7 9 8 9 10 7 7 8 8 9 8 8 9 9 7 8 7 8 6 6 10 16 12 9 8 7 5 4 5 5 6 nan
nan 8 10 8 9 9 9 8 7 9 8 9 8 8 8 8 9 9 8 8 7 6 9 11 15 13 9 8 4 6 6 5 nan
nan 8 7 8 9 9 8 8 7 8 8 7 7 9 9 9 7 7 8 9 9 7 8 8 9 15 16 10 6 7 5 5 nan
nan 8 7 7 7 8 8 7 7 10 8 3 8 8 7 11 10 7 8 8 9 9 8 8 8 8 12 14 13 9 7 6 nan
nan 13 10 8 8 8 8 8 7 8 8 7 6 8 10 9 10 10 9 9 8 8 9 8 8 8 9 10 13 12 9 6 nan
nan 11 12 11 10 10 10 8 7 9 8 8 7 9 12 9 7 10 10 10 8 8 9 10 10 8 10 11 10 9 10 6 nan
nan nan nan nan nan nan nan nan nan nan nan nan nan nan nan nan nan nan nan nan nan nan nan nan nan nan nan nan nan nan nan nan nan
CAPE
828 729 898 745 437 123 98 12 1 18 0 0 0 0 0 0 0 0 0 0 15 3 5 7 18 14 32 42 31 51 67 58 41
885 734 729 480 93 3 2 4 0 0 8 12 0 0 0 0 0 0 0 0 11 8 12 20 17 13 25 72 57 40 25 26 17
751 534 465 129 11 0 0 1 0 8 204 130 151 8 0 0 0 1 9 58 16 12 24 13 31 64 47 32 34 15 18 15 21
599 467 176 31 0 0 47 93 220 492 388 224 73 26 3 0 5 32 34 91 20 17 41 64 46 52 43 62 32 24 22 40 52
377 370 302 211 64 58 206 366 326 592 547 162 29 13 7 0 6 22 29 101 37 5 0 30 29 68 40 32 13 12 51 41 28
61 144 248 272 131 122 352 441 752 396 150 58 35 5 0 1 0 4 85 95 62 12 44 43 51 62 36 19 20 62 25 13 6
19 75 162 271 185 175 336 538 262 3 4 26 18 7 2 0 0 12 92 99 84 38 73 53 83 26 40 27 19 8 23 16 12
0 18 24 36 97 77 105 40 0 0 4 8 8 17 17 20 33 52 104 86 95 52 51 75 54 35 46 19 32 16 27 11 8
0 2 5 21 7 0 0 0 0 4 19 17 4 10 15 22 40 69 77 94 87 35 66 72 59 54 45 32 34 22 5 5 7
0 0 9 8 0 0 0 0 9 8 15 1 7 1 1 9 21 35 49 79 100 79 77 73 68 66 46 46 24 6 4 6 7
0 0 7 13 0 0 0 0 11 9 5 3 1 1 0 3 5 27 48 67 98 109 97 71 80 72 51 48 23 9 7 7 7
0 0 0 4 2 0 0 0 0 0 0 0 1 0 0 4 12 17 35 39 64 88 92 91 97 78 65 48 17 8 11 7 7
1 2 6 19 31 0 0 0 0 0 0 0 5 0 0 1 5 6 0 6 19 44 111 85 82 85 68 58 23 13 11 7 6
1 2 1 13 31 4 3 0 0 0 0 0 0 0 0 0 3 5 6 1 5 18 56 53 68 104 96 72 34 10 14 9 6
0 2 2 2 13 5 0 0 0 0 0 0 0 0 0 0 3 3 7 6 8 17 37 41 51 76 138 93 39 22 20 11 6
0 0 0 0 1 9 0 0 0 0 0 0 0 0 0 0 0 0 2 1 0 12 33 44 30 46 81 109 62 10 6 11 8
0 0 0 0 0 0 0 0 0 0 0 0 0 0 0 0 0 0 0 2 1 1 19 26 24 21 44 46 79 61 36 23 17
0 0 0 0 0 0 0 0 0 0 0 0 0 0 0 0 0 0 0 0 2 4 2 4 11 7 18 13 28 49 73 54 52
0 0 0 0 0 0 0 0 0 0 0 0 0 0 0 0 0 0 0 0 0 0 0 1 0 0 11 13 7 12 36 58 63
2 0 0 0 0 0 0 0 0 0 0 0 0 0 0 0 0 0 0 0 0 0 0 0 0 0 0 0 13 4 43 50 77